Regional Weather Roundup
Issued by NWS

Home | Current Version | Previous Version | Text Only | Print | Product List | Glossary Off
Versions: 1 2 3 4 5 6 7 8 9 10 11 12 13 14 15 16 17 18 19 20 21 22 23 24 25 26 27 28 29 30 31 32 33 34 35 36 37 38 39 40 41 42 43 44 45 46 47 48 49 50

000
ASUS45 KTFX 011619
RWRMT
MONTANA REGIONAL WEATHER ROUNDUP
NATIONAL WEATHER SERVICE GREAT FALLS MT
1000 AM MDT TUE SEP 01 2015

NOTE: "FAIR" INDICATES FEW OR NO CLOUDS BELOW 12000 FEET WITH NO
SIGNIFICANT WEATHER AND/OR OBSTRUCTIONS TO VISIBILITY.

MTZ001>007-043-011700-
WEST OF THE DIVIDE

CITY           SKY/WX    TMP DP  RH WIND       PRES   REMARKS
KALISPELL      SUNNY     66  41  40 MISG      29.90F
MISSOULA       SUNNY     56  43  61 CALM      29.96F
BUTTE          SUNNY     58  41  53 CALM      30.03F
MULLAN PASS    PTSUNNY   45  41  86 VRB3      30.02R
DEER LODGE       N/A     61  39  44 CALM      30.02S
EUREKA           N/A     64  41  42 S7        29.89S
HAMILTON         N/A     59  43  55 W2        29.96F
LIBBY            N/A     64  39  39 SW3       29.91R
RONAN            N/A     67  47  48 W3        29.97F
$$

MTZ008-052>055-011700-
SOUTHWEST MONTANA

CITY           SKY/WX    TMP DP  RH WIND       PRES   REMARKS
BOZEMAN        SUNNY     63  39  41 NE3       29.98F
DILLON         SUNNY     65  36  34 SW9       30.01F
W YELLOWSTONE  SUNNY     55  28  35 E5        30.13F
THREE FORKS      N/A     62  52  70 CALM      29.97F
TWIN BRIDGES     N/A     62  35  36 S5        30.00S
$$

MTZ009-010-012-014-046-048-049-054-011700-
EAST SLOPES AND CENTRAL MONTANA

CITY           SKY/WX    TMP DP  RH WIND       PRES   REMARKS
CUT BANK       CLOUDY    65  34  31 W14G30    29.81R
GREAT FALLS    PTSUNNY   70  38  31 SW28G35   29.85S
MALMSTROM AFB  PTSUNNY   71  37  28 SW23G36   29.86R
HELENA         SUNNY     63  41  44 CALM      29.94S
$$

MTZ011-013-016-021-045-047-050-051-011700-
NORTH CENTRAL MONTANA

CITY           SKY/WX    TMP DP  RH WIND       PRES   REMARKS
HAVRE          MOSUNNY   70  43  37 SW16      29.78R
LEWISTOWN      MOSUNNY   72  42  34 NW9G17    29.90S
N BAR RANCH      N/A     73  41  31 N9        29.93S
CHINOOK          N/A     72  45  37 SW16G22   29.78R
FORT BENTON      N/A     75  36  23 SW18G25   29.83S
$$

MTZ017>020-022>027-061-062-011700-
NORTHEAST MONTANA

CITY           SKY/WX    TMP DP  RH WIND       PRES   REMARKS
GLASGOW        SUNNY     67  47  48 S9        29.78S
JORDAN           N/A     76  39  26 W6        29.81S
SIDNEY         SUNNY     72  55  56 S12       29.81F
WOLF POINT     SUNNY     68  45  43 E3        29.79F
PLENTYWOOD       N/A     68  45  42 S10       29.81S
POPLAR           N/A     72  46  40 CALM      29.79F
$$

MTZ028>42-056>058-011700-
SOUTHCENTRAL AND SOUTHEAST MONTANA

CITY           SKY/WX    TMP DP  RH WIND       PRES   REMARKS
BAKER          SUNNY     77  58  51 VRB6      29.87F
BILLINGS       MOSUNNY   67  41  38 CALM      29.90R
LIVINGSTON     SUNNY     74  29  19 W14       29.95F
MILES CITY     SUNNY     70  56  61 SE10      29.83S
EKALAKA          N/A     76  49  38 SW5       29.88S
FORSYTH          N/A     70  46  43 W6        29.84S
LAUREL           N/A     70  42  36 CALM      29.89F
ROUNDUP          N/A     66  37  34 S8        29.81S
$$

REGIONAL REPORTS...DAKOTAS

CITY           SKY/WX    TMP DP  RH WIND       PRES   REMARKS
WILLISTON      SUNNY     71  53  52 VRB3      29.82F
MINOT          SUNNY     76  55  48 S9        29.83S
DICKINSON      SUNNY     76  58  53 S12       29.85S
BEACH            N/A     77  59  53 SW9       29.86S
CROSBY           N/A     73  50  43 S13       29.81S
BISMARCK       SUNNY     74  59  59 SE8       29.87F
GRAND FORKS    MOSUNNY   76  54  46 S9        29.86S
FARGO          SUNNY     80  57  45 S8        29.87F
BUFFALO SD       N/A     71  60  68 S5        29.82S
RAPID CITY       N/A    N/A N/A N/A MISG      29.88R
$$

REGIONAL REPORTS...WYOMING/IDAHO/WASHINGTON

CITY           SKY/WX    TMP DP  RH WIND       PRES   REMARKS
GILLETTE       SUNNY     79  37  22 W13       29.94S
SHERIDAN       MOSUNNY   76  41  28 CALM      29.92S
BUFFALO WY     SUNNY     78  38  23 NE5       29.99S
CODY           SUNNY     79  28  15 SW15      29.98S
YELLOWSTONE LA   N/A     56  37  49 SE3       30.22S
IDAHO FALLS    MOSUNNY   62  41  46 N7        30.03S
SALMON         SUNNY     57  37  47 CALM      29.99F
BOISE          SUNNY     69  38  32 CALM      29.93S
SPOKANE        MOSUNNY   58  47  66 SW13      29.92S
$$

REGIONAL REPORTS...ALBERTA

CITY           SKY/WX    TMP DP  RH WIND       PRES   REMARKS
EDMONTON       MOSUNNY   57  43  58 W13       29.59R
CALGARY        MOSUNNY   61  43  51 N10       29.67R
LETHBRIDGE     MOSUNNY   70  37  30 W20G32    29.73R
MEDICINE HAT   MOSUNNY   73  37  27 SW25G41   29.68S
WATERTON GATE    N/A     64  37  36 SW21G32     N/A
CARDSTON         N/A     68  36  30 SW6         N/A
MILK RIVER       N/A     68  34  28 SW8         N/A
$$

REGIONAL REPORTS...SASKATCHEWAN

CITY           SKY/WX    TMP DP  RH WIND       PRES   REMARKS
SWIFT CURRENT  SUNNY     66  41  39 SW18G24   29.73R
REGINA         PTSUNNY   64  50  59 S8        29.75F
SASKATOON      MOSUNNY   68  45  42 SW21G26   29.63S
CYPRESS HILLS    N/A     64  34  32 SW10G22     N/A
VAL MARIE        N/A     72  46  40 SW10        N/A
ROCKGLEN         N/A     70  46  43 S9          N/A
ASSINIBOIA       N/A     59  45  58 W14G20      N/A
$$



USA.gov is the U.S. government's official web portal to all federal, state and local government web resources and services.